PEGASUS DEB, 39314

Orbit data source: Space-Track

PEGASUS DEB, 39314 is space debris in LEO originally from a launch on Thu, 19 May 1994 UTC launched from the Air Force Western Test Range (AFWTR). Debris objects in space refer to the collection of defunct objects orbiting the Earth. Examples of debris include non-operational satellites, rocket bodies, and fragments generated from explosions, collisions, or faulty payload assembly.

Loading next visibility...
Identifier
39314, 1994-029AEZ
Orbit
LEO
Country
Flag of USUS
Related business
Manufacturer
Unknown
Mission
Spacecraft
Bus & Motor
Unknown
Mass
Unknown
Launch date (UTC)
1994-05-19 (32 years ago)
Launch vehicle
Unknown
Launch site
Air Force Western Test Range (AFWTR)
Object type
Payload
Rocket body
Debris
Shape & HBR
Unknown shape, 0.1 m
Radar Cross Section
Small (<0.1 m²)

Expand to show TLE details & history
Last TLE update: 2 days ago

TLE from 2 days ago
0 PEGASUS DEB
1 39314U 94029AEZ 26173.49463534  .00003236  00000-0  40958-3 0  9994
2 39314  81.6551 232.4590 0158208 119.5323 242.1765 14.72992449661507
Epoch: 2026-06-22T11:52Z
TLE epoch observation values (Epoch: 2026-06-22T11:52:16.493Z)
Latitude
Longitude
143.71054°
Altitude
707.813 km
Speed
7.473 km/s
True Right ascension
15h 29m 50s
True Declination
0° 00' 00"
Sunlit
Object was in full shadow at epoch
Visualization orbit readout
Latitude
Unknown
Longitude
Unknown
Altitude
Unknown
Speed
Unknown
Apparent Right ascension
Unknown
Apparent Declination
Unknown
Sunlit
N/A
Visualization observer readout
Local Sidereal Time
22:44:00
Azimuth
Unknown
Elevation
Unknown
Doppler factor
Unknown
Orbital elements
Apogee altitude
759.769 km
Perigee altitude
537.432 km
Semi-major axis
7,026.738 km
Eccentricity
0.01582
Inclination
81.6551°
RAAN
232.459°
Arg. of periapsis
119.5323°
True anomaly
240.58804°
Mean anomaly
242.1765°
Eccentric anomaly
241.38078°
Mean motion
3.68479 °/min
Orbital period
97.7 mins
BSTAR
0.00040958
Loading maneuver chart data...
Computing Atmospheric mass density...

Documentation

Showing up to 5 results
|